Spearfish, SD

5:55 AM MST on December 08, 2016 (GMT -0700)
Black Hills-Ice

Weather History for KSPF - October, 2013

Change the Weather History Date:

Sunday, October 13, 2013

  Actual Average (KEFC) Record (KEFC)
Temperature  
Mean Temperature 40 °F -  
Max Temperature 50 °F 65 °F 89 °F (1958)
Min Temperature 30 °F 35 °F 21 °F (1986)
Degree Days  
Heating Degree Days 25    
Moisture  
Dew Point 35 °F    
Average Humidity 80    
Maximum Humidity 93    
Minimum Humidity 66    
Precipitation  
Precipitation 0.00 in - - ()
Sea Level Pressure  
Sea Level Pressure 30.13 in    
Wind  
Wind Speed 7 mph (East)    
Max Wind Speed 14 mph    
Max Gust Speed 16 mph    
Visibility 10 miles    
Events Thunderstorm    
Averages and records for this station are not official NWS values.
T = Trace of Precipitation, MM = Missing Value Source: NWS Daily Summary

Daily Weather History Graph

Daily Weather History Graph

Search for Another Location

Airport or City:

Trip Planner

Search our weather history database for the weather conditions in past years. The results will help you decide how hot, cold, wet, or windy it might be!

Date:

Astronomy

Oct. 13, 2013 Rise Set
Actual Time 8:08 AM CDT 7:13 PM CDT
Civil Twilight 7:38 AM CDT 7:42 PM CDT
Nautical Twilight 7:05 AM CDT 8:16 PM CDT
Astronomical Twilight 6:31 AM CDT 8:50 PM CDT
Moon 4:17 PM CDT (10/13) 2:08 AM CDT (10/13)
Length of Visible Light 12h 04m
Length of Day
11h 05m
Waxing Gibbous, 69% of the Moon is Illuminated
Oct 13
Waxing Gibbous
Oct 18
Full
Oct 26
Last Quarter
Nov 3
New
Nov 9
First Quarter

Hourly Weather History & Observations

Time (CDT) Temp. Windchill Dew Point Humidity Pressure Visibility Wind Dir Wind Speed Gust Speed Precip Events Conditions
12:15 AM 41.0 °F 34.3 °F 32.0 °F 70% 30.18 in 10.0 mi ESE 11.5 mph - N/A   Overcast
12:35 AM 41.0 °F 33.5 °F 32.0 °F 70% 30.17 in 8.0 mi ESE 13.8 mph - N/A   Mostly Cloudy
12:55 AM 39.2 °F 32.0 °F 30.2 °F 70% 30.18 in 10.0 mi East 11.5 mph 16.1 mph N/A   Mostly Cloudy
1:15 AM 39.2 °F 32.0 °F 30.2 °F 70% 30.18 in 10.0 mi East 11.5 mph - N/A   Mostly Cloudy
1:35 AM 39.2 °F 32.0 °F 32.0 °F 75% 30.17 in 10.0 mi East 11.5 mph 16.1 mph N/A   Clear
1:55 AM 37.4 °F 29.8 °F 32.0 °F 81% 30.18 in 10.0 mi East 11.5 mph - N/A   Clear
2:15 AM 37.4 °F 30.3 °F 32.0 °F 81% 30.18 in 10.0 mi East 10.4 mph - N/A   Clear
2:35 AM 37.4 °F 28.9 °F 32.0 °F 81% 30.17 in 10.0 mi ESE 13.8 mph - N/A   Clear
2:55 AM 37.4 °F 29.8 °F 32.0 °F 81% 30.17 in 10.0 mi East 11.5 mph - N/A   Clear
3:15 AM 35.6 °F 31.7 °F 32.0 °F 87% 30.18 in 10.0 mi SW 4.6 mph - N/A   Partly Cloudy
3:35 AM 35.6 °F 32.8 °F 32.0 °F 87% 30.17 in 10.0 mi South 3.5 mph - N/A   Scattered Clouds
3:55 AM 35.6 °F 32.8 °F 32.0 °F 87% 30.17 in 10.0 mi ESE 3.5 mph - N/A   Clear
4:15 AM 37.4 °F 29.3 °F 32.0 °F 81% 30.17 in 10.0 mi ESE 12.7 mph - N/A   Clear
4:35 AM 37.4 °F 30.3 °F 30.2 °F 75% 30.17 in 10.0 mi East 10.4 mph - N/A   Clear
4:55 AM 35.6 °F - 30.2 °F 81% 30.17 in 9.0 mi Calm Calm - N/A   Clear
5:15 AM 35.6 °F 30.7 °F 28.4 °F 75% 30.18 in 8.0 mi SE 5.8 mph - N/A   Clear
5:35 AM 33.8 °F 27.0 °F 28.4 °F 81% 30.18 in 6.0 mi ESE 8.1 mph - N/A   Haze
5:55 AM 33.8 °F 25.3 °F 28.4 °F 81% 30.18 in 9.0 mi SE 11.5 mph - N/A   Clear
6:15 AM 32.0 °F - 28.4 °F 87% 30.19 in 8.0 mi Calm Calm - N/A   Clear
6:35 AM 32.0 °F 27.5 °F 28.4 °F 87% 30.18 in 9.0 mi SE 4.6 mph - N/A   Clear
6:55 AM 32.0 °F - 28.4 °F 87% 30.18 in 7.0 mi Calm Calm - N/A   Clear
7:15 AM 32.0 °F - 28.4 °F 87% 30.18 in 10.0 mi Calm Calm - N/A   Clear
7:35 AM 32.0 °F - 28.4 °F 87% 30.18 in 10.0 mi Calm Calm - N/A   Clear
7:55 AM 30.2 °F 25.4 °F 28.4 °F 93% 30.18 in 10.0 mi West 4.6 mph - N/A   Clear
8:15 AM 32.0 °F 26.4 °F 28.4 °F 87% 30.18 in 10.0 mi West 5.8 mph - N/A   Clear
8:35 AM 32.0 °F 27.5 °F 28.4 °F 87% 30.18 in 10.0 mi West 4.6 mph - N/A   Clear
8:55 AM 32.0 °F 26.4 °F 30.2 °F 93% 30.18 in 10.0 mi West 5.8 mph - N/A   Clear
9:15 AM 33.8 °F - 32.0 °F 93% 30.18 in 10.0 mi Calm Calm - N/A   Clear
9:35 AM 35.6 °F 32.8 °F 32.0 °F 87% 30.18 in 10.0 mi West 3.5 mph - N/A   Clear
10:15 AM 37.4 °F - 32.0 °F 81% 30.17 in 9.0 mi Calm Calm - N/A   Clear
10:35 AM 39.2 °F - 32.0 °F 75% 30.17 in 10.0 mi Calm Calm - N/A   Clear
10:55 AM 39.2 °F - 32.0 °F 75% 30.17 in 10.0 mi Calm Calm - N/A   Clear
11:15 AM 41.0 °F - 32.0 °F 70% 30.17 in 10.0 mi Calm Calm - N/A   Clear
11:35 AM 41.0 °F - 32.0 °F 70% 30.16 in 10.0 mi Calm Calm - N/A   Clear
11:55 AM 41.0 °F 39.0 °F 32.0 °F 70% 30.15 in 10.0 mi NW 3.5 mph - N/A   Clear
12:15 PM 42.8 °F 41.1 °F 33.8 °F 70% 30.15 in 10.0 mi NNW 3.5 mph - N/A   Clear
12:35 PM 44.6 °F - 33.8 °F 66% 30.14 in 10.0 mi Calm Calm - N/A   Clear
12:55 PM 44.6 °F 43.1 °F 35.6 °F 71% 30.14 in 10.0 mi NNE 3.5 mph - N/A   Clear
1:15 PM 44.6 °F 42.2 °F 35.6 °F 71% 30.13 in 10.0 mi NE 4.6 mph - N/A   Clear
1:35 PM 46.4 °F 45.2 °F 35.6 °F 66% 30.12 in 10.0 mi ENE 3.5 mph - N/A   Clear
1:55 PM 46.4 °F 44.3 °F 35.6 °F 66% 30.12 in 10.0 mi NE 4.6 mph - N/A   Clear
2:15 PM 46.4 °F 45.2 °F 37.4 °F 71% 30.11 in 10.0 mi North 3.5 mph - N/A   Clear
2:35 PM 48.2 °F - 37.4 °F 66% 30.11 in 10.0 mi NE 6.9 mph - N/A   Clear
2:55 PM 48.2 °F - 39.2 °F 71% 30.10 in 10.0 mi East 6.9 mph - N/A   Clear
3:15 PM 48.2 °F - 39.2 °F 71% 30.10 in 10.0 mi East 8.1 mph - N/A   Clear
3:35 PM 50.0 °F - 39.2 °F 66% 30.09 in 10.0 mi East 5.8 mph - N/A   Clear
3:55 PM 48.2 °F - 39.2 °F 71% 30.09 in 10.0 mi ENE 8.1 mph - N/A   Clear
4:15 PM 48.2 °F - 39.2 °F 71% 30.09 in 10.0 mi NE 9.2 mph - N/A   Clear
4:35 PM 48.2 °F - 39.2 °F 71% 30.08 in 10.0 mi ENE 9.2 mph - N/A   Clear
4:55 PM 48.2 °F - 41.0 °F 76% 30.08 in 10.0 mi ENE 8.1 mph - N/A   Clear
5:15 PM 48.2 °F - 41.0 °F 76% 30.07 in 10.0 mi ENE 9.2 mph - N/A   Clear
5:35 PM 48.2 °F - 41.0 °F 76% 30.08 in 10.0 mi East 10.4 mph - N/A   Clear
5:55 PM 48.2 °F - 41.0 °F 76% 30.08 in 10.0 mi East 10.4 mph - N/A   Clear
6:15 PM 46.4 °F 42.4 °F 41.0 °F 81% 30.08 in 10.0 mi East 8.1 mph - N/A   Clear
6:35 PM 46.4 °F 41.1 °F 41.0 °F 81% 30.07 in 10.0 mi East 11.5 mph - N/A   Clear
6:55 PM 46.4 °F 41.1 °F 39.2 °F 76% 30.07 in 10.0 mi East 11.5 mph - N/A   Clear
7:15 PM 44.6 °F 40.2 °F 39.2 °F 81% 30.08 in 10.0 mi ENE 8.1 mph - N/A   Clear
7:35 PM 44.6 °F 43.1 °F 39.2 °F 81% 30.09 in 10.0 mi East 3.5 mph - N/A   Partly Cloudy
7:55 PM 42.8 °F 41.1 °F 39.2 °F 87% 30.10 in 10.0 mi WNW 3.5 mph - N/A   Mostly Cloudy
8:15 PM 44.6 °F 40.7 °F 39.2 °F 81% 30.09 in 10.0 mi East 6.9 mph - N/A   Overcast
8:35 PM 41.0 °F 38.0 °F 39.2 °F 93% 30.08 in 10.0 mi ESE 4.6 mph - N/A   Mostly Cloudy
8:55 PM 41.0 °F 39.0 °F 39.2 °F 93% 30.07 in 10.0 mi East 3.5 mph - N/A   Overcast
9:15 PM 41.0 °F 38.0 °F 39.2 °F 93% 30.06 in 10.0 mi East 4.6 mph - N/A   Mostly Cloudy
9:35 PM 41.0 °F - 39.2 °F 93% 30.06 in 10.0 mi Calm Calm - N/A   Mostly Cloudy
9:55 PM 41.0 °F - 39.2 °F 93% 30.05 in 10.0 mi Calm Calm - N/A   Overcast
10:15 PM 41.0 °F 39.0 °F 39.2 °F 93% 30.04 in 10.0 mi SW 3.5 mph - N/A   Overcast
10:35 PM 41.0 °F - 39.2 °F 93% 30.03 in 10.0 mi Calm Calm - N/A   Overcast
10:55 PM 41.0 °F 39.0 °F 39.2 °F 93% 30.02 in 10.0 mi WSW 3.5 mph - N/A   Overcast
11:15 PM 41.0 °F 39.0 °F 39.2 °F 93% 30.01 in 10.0 mi West 3.5 mph - N/A   Overcast
11:35 PM 39.2 °F 37.0 °F 37.4 °F 93% 30.00 in 10.0 mi WSW 3.5 mph - N/A   Mostly Cloudy
11:55 PM 41.0 °F 38.0 °F 39.2 °F 93% 29.99 in 10.0 mi West 4.6 mph - N/A Thunderstorm Mostly Cloudy